Location: Redwood Loop Observatory
(43.9900°N, 124.0900°W)
Time: 16:31:53
(UTC-08:00)

Envisat - Pass Details

Date: 29 October 2019
Orbit: 764 x 766 km, 98.1° (Epoch: 17 November)

Event Time Altitude Azimuth Distance (km) Brightness Sun altitude
Rises 19:55:23 0° 187° (S) 3,218 6.3 -19.3°
Reaches altitude 10° 19:57:50 10° 195° (SSW) 2,297 5.6 -19.8°
Maximum altitude 20:02:32 38° 263° (W) 1,160 4.5 -20.6°
Drops below altitude 10° 20:07:16 10° 331° (NNW) 2,312 5.8 -21.5°
Sets 20:09:44 0° 340° (NNW) 3,242 6.5 -21.9°
